sat.trackr.live / text

‹ back to catalog

LEMUR-2-SEJONG-2

NORAD 64586 · 2025-135BL

PAYLOAD ACTIVE UNKNOWN

§ Identity

Operator
Country
US
Launch date
2025-06-23
Launch site
AFWTR
Launch vehicle
Mass (kg)
RCS (m²)

Purposes: earth_obs

External: N2YO · Heavens-Above · Gunter

§ Orbital elements

Epoch: 2026-05-25T05:43:09.779232Z

Period
96.23 min
Inclination
97.7653°
Eccentricity
0.0005163
Mean motion
14.96468204 rev/d
Perigee alt
574.2 km
Apogee alt
581.4 km
Semi-major
6,956.0 km
B*
3.5429e-4
RAAN
260.4246°
Arg perigee
54.6619°
Mean anomaly
305.5084°
Rev number
5,051

§ Raw data

LEMUR-2-SEJONG-21 64586U 25135BL  26145.23830763  .00003965  00000+0  35429-3 0  99932 64586  97.7653 260.4246 0005163  54.6619 305.5084 14.96468204 50518

JSON: /api/v1/satellites/64586 · /tle

For live sub-satellite position, see the globe view (requires WebGL).

§ Visibility from observer

Set your observer location to see the next 7 days of passes ≥ 10°. The values pass through the URL so the page stays shareable.

No JS? Fill the form by hand. The geolocation button needs JavaScript.